[[{"header":{"parameterUnit":"m.s-1","parameterCategory":1,"la1":30.2991,"la2":30.254,"lo1":-89.0895,"lo2":-89.0444,"dy":0.0017,"dx":0.0017,"nx":28,"ny":28,"refTime":"2023-04-27T21:00:00:Z","depth":0,"parameterNumber":2,"parameterNumberName":"U-component_of_WINDS"},"data":[0,0,0,0,0,0,0,0,0,0,0,0,0,0,0,0,0,0,0,0,0,0,0,0,0,0,0,0,0,0,0,0,0,0,0,0,0,0,0,0,0,0,0,0,0,0,0,0,0,0,0,0,0,0,0,0,0,0,1.6788,1.6788,0,1.6809,1.6809,1.6809,1.6767,1.6766,1.6764,1.6763,1.6782,1.6783,1.6785,0,0,0,0,0,0,0,0,0,0,0,0,0,1.6712,1.6714,1.6788,1.6788,1.6789,1.6808,1.6809,1.6809,1.6767,1.6765,1.6764,1.6762,1.6781,1.6783,1.6785,0,0,0,0,0,0,0,0,0,0,0,0,0,1.674,1.6715,1.6788,1.677,1.6769,1.6808,1.6809,1.6809,1.6767,1.6765,1.6763,1.6761,1.678,1.6783,1.6786,1.6843,0,0,1.6794,1.6795,0,0,0,0,0,0,0,0,1.6739,1.6743,1.6773,1.6772,1.677,1.6783,1.6789,1.682,1.6768,1.6768,1.6763,1.676,1.6784,1.6786,1.6794,1.6844,1.6845,1.6794,1.6796,1.6797,1.6797,0,0,0,0,0,0,0,1.6737,1.6742,1.6796,1.6773,1.6772,1.6761,1.6763,1.6795,1.6787,1.6768,1.6765,1.6768,1.6783,1.6792,1.6794,1.6845,1.6794,1.6796,1.6798,1.6799,1.6945,1.6947,0,0,0,0,0,0,1.6737,1.6741,1.6795,1.6797,1.6749,1.6764,1.6766,1.6781,1.6786,1.6785,1.677,1.6766,1.6788,1.6791,1.6795,1.6864,1.6797,1.6799,1.6801,1.6943,1.6946,1.6948,0,0,0,0,0,0,1.6736,1.6743,1.6795,1.6768,1.6774,1.6767,1.6785,1.6782,1.6792,1.6788,1.6786,1.678,1.6787,1.6791,1.6832,1.6864,1.68,1.6803,1.694,1.6944,1.6947,1.7003,0,0,0,0,0,0,1.6734,1.6742,1.6764,1.6769,1.6775,1.6832,1.6787,1.6784,1.6797,1.6792,1.6798,1.6797,1.6785,1.6828,1.6835,1.6867,1.6805,1.6937,1.6942,1.6946,1.6998,1.7008,1.7016,0,0,0,0,0,1.6731,1.6778,1.6765,1.6772,1.6802,1.6834,1.6837,1.6824,1.6799,1.6821,1.6819,1.6796,1.686,1.6833,1.684,1.6873,1.6935,1.6941,1.6946,1.6994,1.7006,1.7016,0,0,0,0,0,0,1.6775,1.6778,1.6764,1.6814,1.6824,1.6827,1.6854,1.6837,1.6854,1.6848,1.6831,1.6832,1.6877,1.6879,1.6849,1.693,1.6893,1.69,1.6928,1.6939,1.6948,1.6947,1.6807,0,0,0,0,0,1.6791,1.6817,1.6817,1.6861,1.6867,1.686,1.6873,1.6862,1.6872,1.6876,1.6876,1.6886,1.6909,1.6923,1.6943,1.6998,1.6999,1.7024,1.7033,1.7041,1.7047,1.7078,1.709,1.6965,1.6965,1.6965,0,0,1.6823,1.6828,1.6845,1.687,1.6877,1.6904,1.6864,1.6893,1.6914,1.688,1.692,1.6921,1.693,1.6979,1.7,1.6982,1.7082,1.7047,1.7053,1.7056,1.7085,1.7097,1.7107,1.6969,1.6968,1.6967,0,0,1.6897,1.6902,1.694,1.6949,1.696,1.6955,1.6965,1.6971,1.6971,1.701,1.6986,1.701,1.7048,1.7057,1.7066,1.7146,1.7126,1.7152,1.72,1.723,1.724,1.7249,1.7279,1.729,1.7159,1.7159,1.7159,0,1.6935,1.6976,1.6962,1.6995,1.7007,1.6979,1.7019,1.7027,1.7044,1.7053,1.7032,1.7081,1.7086,1.7137,1.7157,1.7165,1.7176,1.7152,1.724,1.7249,1.7256,1.7285,1.7297,1.7162,1.7162,1.7161,1.7161,0,1.7024,1.7053,1.7082,1.7102,1.7117,1.7153,1.7145,1.7162,1.715,1.7148,1.719,1.7194,1.7216,1.7227,1.7215,1.7278,1.7266,1.7243,1.7206,1.7272,1.7299,1.731,1.7167,1.7166,1.7165,1.7164,0,0,1.7124,1.7138,1.7149,1.7159,1.7171,1.7193,1.7228,1.725,1.7267,1.7279,1.7309,1.7343,1.7323,1.7333,1.7322,1.7349,1.7415,1.7322,1.7322,1.7341,1.7487,1.7506,1.7519,1.7401,1.7403,1.7405,1.7487,0,1.7199,1.7261,1.7251,1.731,1.7338,1.7313,1.7344,1.7354,1.7353,1.7377,1.7375,1.74,1.737,1.7377,1.7402,1.7401,1.7444,1.7395,1.743,1.7431,1.743,1.7532,1.7552,1.7629,1.7497,1.7498,1.75,0,1.7294,1.7313,1.7377,1.7387,1.7398,1.7426,1.7448,1.747,1.7482,1.7479,1.7493,1.7477,1.7513,1.7474,1.7524,1.7491,1.7504,1.7506,1.7509,1.7513,1.7471,1.7541,1.7653,1.7665,1.7516,1.7514,1.7513,0,1.7364,1.7405,1.745,1.7458,1.7471,1.7491,1.7497,1.7507,1.7523,1.7541,1.7551,1.7572,1.7584,1.7602,1.7593,1.7565,1.7645,1.7605,1.7644,1.7645,1.7663,1.7663,1.7781,1.7669,1.7669,1.7668,1.7668,0,1.7449,1.749,1.7482,1.7509,1.7554,1.7542,1.7586,1.7589,1.7599,1.7626,1.7605,1.7631,1.7617,1.7642,1.7635,1.7678,1.7683,1.7683,1.7681,1.7686,1.7686,1.7696,1.7691,1.7672,1.7671,1.767,1.767,0,1.7536,1.7532,1.7579,1.7588,1.7591,1.7624,1.7631,1.7657,1.7655,1.769,1.7698,1.7695,1.7724,1.7716,1.7747,1.7742,1.7798,1.7788,1.7794,1.7793,1.7834,1.7831,1.7964,1.7982,1.7856,1.7857,1.7858,0,1.7591,1.7622,1.7635,1.7654,1.7662,1.769,1.7706,1.7696,1.7713,1.7731,1.7755,1.7782,1.7804,1.7851,1.7851,1.7875,1.7867,1.7912,1.787,1.7876,1.7871,1.787,1.7874,1.7921,1.7922,1.7923,1.7924,0,1.7691,1.7689,1.7714,1.7739,1.776,1.7778,1.7795,1.7811,1.7801,1.7822,1.7853,1.787,1.7902,1.793,1.7953,1.7958,1.7941,1.7937,1.7948,1.7955,1.7959,1.796,1.7819,1.7934,1.7933,1.7933,1.7932,1.7932,1.7765,1.7793,1.7808,1.7837,1.7849,1.7866,1.7892,1.7894,1.792,1.7947,1.7938,1.7974,1.7986,1.8015,1.8024,1.8051,1.8034,1.8049,1.8053,1.8058,1.8065,1.7953,1.8055,1.8054,1.8054,1.8054,1.8053,0,1.7866,1.7875,1.7903,1.7928,1.7952,1.7934,1.7952,1.7973,1.8005,1.8019,1.8041,1.8077,1.8105,1.8108,1.8134,1.8155,1.8148,1.8163,1.8162,1.8164,1.8077,1.8066,1.8169,1.8169,1.8169,1.8169,1.8169,1.8169,1.7922,1.7969,1.7969,1.8022,1.803,1.8066,1.8078,1.8094,1.8105,1.8147,1.8171,1.8173,1.8183,1.8211,1.8235,1.8235,1.8247,1.8266,1.8263,1.8181,1.817,1.8159,1.8149,1.8268,1.8268,1.8349,1.8349,1.835]},{"header":{"parameterUnit":"m.s-1","parameterCategory":1,"la1":30.2991,"la2":30.254,"lo1":-89.0895,"lo2":-89.0444,"dy":0.0017,"dx":0.0017,"nx":28,"ny":28,"refTime":"2023-04-27T21:00:00:Z","depth":0,"parameterNumber":3,"parameterNumberName":"V-component_of_WINDS"},"data":[0,0,0,0,0,0,0,0,0,0,0,0,0,0,0,0,0,0,0,0,0,0,0,0,0,0,0,0,0,0,0,0,0,0,0,0,0,0,0,0,0,0,0,0,0,0,0,0,0,0,0,0,0,0,0,0,0,0,2.8445,2.8441,0,2.8101,2.8097,2.8093,2.7999,2.8001,2.8003,2.8005,2.7641,2.763,2.7618,0,0,0,0,0,0,0,0,0,0,0,0,0,2.9005,2.8996,2.8445,2.8441,2.8436,2.8102,2.8097,2.8092,2.7999,2.8001,2.8004,2.8006,2.7645,2.7631,2.7617,0,0,0,0,0,0,0,0,0,0,0,0,0,2.8722,2.8992,2.8446,2.835,2.8338,2.8103,2.8097,2.8091,2.7998,2.8001,2.8004,2.8007,2.7649,2.7632,2.7615,2.7447,0,0,2.7562,2.7554,0,0,0,0,0,0,0,0,2.8738,2.8701,2.8368,2.8356,2.8342,2.8096,2.8161,2.7875,2.7997,2.8127,2.8005,2.8009,2.7789,2.776,2.7689,2.743,2.7414,2.756,2.755,2.7542,2.7538,0,0,0,0,0,0,0,2.8758,2.8715,2.8308,2.8363,2.8347,2.8319,2.8282,2.8106,2.7945,2.8116,2.8108,2.8069,2.7782,2.7706,2.768,2.7409,2.7561,2.7546,2.7535,2.7528,2.6989,2.6985,0,0,0,0,0,0,2.8796,2.8732,2.8319,2.8298,2.8552,2.8306,2.8265,2.8172,2.7946,2.7915,2.8067,2.8066,2.7734,2.77,2.7666,2.745,2.7543,2.7526,2.7516,2.6993,2.6988,2.6984,0,0,0,0,0,0,2.8808,2.876,2.8333,2.8513,2.8457,2.8294,2.819,2.8164,2.8087,2.791,2.7879,2.8019,2.7735,2.7691,2.7502,2.7436,2.7518,2.7503,2.6997,2.6991,2.6986,2.702,0,0,0,0,0,0,2.8825,2.8765,2.8703,2.8513,2.8448,2.8179,2.8186,2.8155,2.8059,2.8054,2.7857,2.7827,2.7734,2.7528,2.7485,2.7414,2.7489,2.7002,2.6995,2.6988,2.7023,2.7016,2.7009,0,0,0,0,0,2.8845,2.8725,2.8701,2.8651,2.8367,2.8175,2.8137,2.8036,2.8054,2.7987,2.7873,2.7833,2.7452,2.751,2.746,2.7383,2.7006,2.6997,2.6988,2.7027,2.7017,2.7009,0,0,0,0,0,0,2.8907,2.8698,2.8669,2.8484,2.8349,2.816,2.8073,2.803,2.7884,2.7885,2.7762,2.7718,2.7536,2.7441,2.7509,2.7205,2.7227,2.7208,2.7274,2.7263,2.7256,2.7281,2.7475,0,0,0,0,0,2.8901,2.8767,2.8589,2.8443,2.8377,2.8238,2.815,2.8084,2.7937,2.7878,2.775,2.7605,2.7451,2.7353,2.7203,2.7011,2.6963,2.6933,2.6926,2.6921,2.6904,2.6789,2.6772,2.6955,2.6955,2.6955,0,0,2.8883,2.8752,2.8675,2.8452,2.834,2.8198,2.8189,2.8041,2.7933,2.7854,2.7667,2.7568,2.7398,2.7206,2.7114,2.712,2.6843,2.6909,2.6907,2.6892,2.6778,2.6761,2.6746,2.6949,2.695,2.6951,0,0,2.8779,2.8669,2.8533,2.8421,2.8251,2.8159,2.8127,2.7943,2.7875,2.7687,2.7623,2.7491,2.7232,2.7111,2.7016,2.6865,2.682,2.6819,2.6779,2.6669,2.6654,2.6641,2.6581,2.6562,2.6804,2.6804,2.6804,0,2.8777,2.8566,2.8467,2.8322,2.8223,2.8149,2.8006,2.7901,2.7689,2.762,2.7632,2.7302,2.7182,2.6958,2.6921,2.6849,2.6803,2.6839,2.6666,2.6651,2.6636,2.6578,2.6556,2.6805,2.6805,2.6805,2.6805,0,2.8569,2.8424,2.8334,2.8135,2.8026,2.7883,2.7757,2.7659,2.7602,2.7507,2.7313,2.7167,2.6984,2.6927,2.6869,2.6692,2.6701,2.6691,2.6709,2.6621,2.6564,2.6541,2.6806,2.6805,2.6805,2.6805,0,0,2.8492,2.8241,2.8209,2.8116,2.7923,2.7805,2.7657,2.7481,2.7396,2.7253,2.712,2.6902,2.689,2.6782,2.6711,2.6615,2.6497,2.6615,2.6609,2.6593,2.6286,2.6291,2.6267,2.6469,2.6464,2.646,2.6298,0,2.8359,2.8095,2.8001,2.7781,2.7641,2.7568,2.7437,2.7302,2.7209,2.7073,2.6968,2.6813,2.6813,2.6747,2.6649,2.6532,2.6432,2.6543,2.6338,2.6332,2.6378,2.6238,2.6243,2.6097,2.6276,2.6272,2.6269,0,2.8169,2.8025,2.7793,2.7614,2.7551,2.7437,2.7265,2.7139,2.6982,2.692,2.68,2.6734,2.6569,2.6603,2.6371,2.6448,2.6359,2.6288,2.628,2.6252,2.6291,2.6201,2.6049,2.6025,2.6234,2.6237,2.6239,0,2.8129,2.7878,2.7705,2.7628,2.7417,2.7336,2.7243,2.709,2.6989,2.6838,2.677,2.6602,2.6508,2.6377,2.6265,2.6301,2.6041,2.6067,2.598,2.5982,2.5924,2.5929,2.575,2.5877,2.5877,2.5878,2.5878,0,2.7987,2.7846,2.7683,2.7577,2.7414,2.7305,2.7146,2.7048,2.6912,2.678,2.6707,2.6583,2.6447,2.6304,2.6216,2.6034,2.5993,2.5934,2.5911,2.5938,2.5944,2.5873,2.5878,2.5872,2.5873,2.5874,2.5875,0,2.7913,2.78,2.7605,2.7422,2.7372,2.726,2.71,2.699,2.6895,2.6728,2.6683,2.653,2.6359,2.6236,2.6015,2.5955,2.5757,2.5738,2.5811,2.5798,2.5717,2.5724,2.5482,2.5442,2.5601,2.56,2.5599,0,2.7828,2.7718,2.7523,2.7432,2.734,2.7193,2.709,2.6978,2.6872,2.6684,2.6595,2.642,2.6272,2.6001,2.5867,2.5696,2.5667,2.5595,2.5641,2.5669,2.5659,2.5665,2.565,2.5586,2.5585,2.5584,2.5583,0,2.7686,2.7635,2.7493,2.7328,2.7208,2.7073,2.6936,2.6864,2.6726,2.661,2.6436,2.6322,2.6096,2.5919,2.5735,2.5634,2.5582,2.5571,2.554,2.5563,2.5608,2.5576,2.5786,2.5575,2.5576,2.5577,2.5577,2.5578,2.7599,2.7496,2.7343,2.7184,2.707,2.6943,2.683,2.6721,2.6574,2.6384,2.6325,2.6142,2.5983,2.5731,2.5627,2.5479,2.5482,2.544,2.5428,2.5417,2.5415,2.5637,2.5445,2.5445,2.5446,2.5446,2.5446,0,2.7449,2.7347,2.7203,2.7014,2.6888,2.6857,2.6703,2.6597,2.6439,2.6297,2.6154,2.595,2.5779,2.5632,2.5453,2.5362,2.5333,2.5318,2.532,2.5296,2.5426,2.5467,2.5344,2.5344,2.5344,2.5344,2.5344,2.5344,2.7356,2.7178,2.7109,2.6871,2.6768,2.6591,2.6505,2.6385,2.6271,2.6048,2.5906,2.5813,2.5667,2.5476,2.5315,2.5276,2.5211,2.52,2.5154,2.5277,2.5288,2.5299,2.5337,2.5188,2.5188,2.5036,2.5034,2.5033]}]]